Location: Bremen
(53.0793°N, 8.8017°E)
Time: 18:12:26
(UTC+01:00)

Vanguard 1 Rocket - Pass Details

Date: 03 December 2021
Orbit: 651 x 4224 km, 34.3° (Epoch: 18 January)

Event Time Altitude Azimuth Distance (km) Brightness Sun altitude
Rises 10:47:45 0° 274° (W) 7,627 11.9 12.4°
Reaches altitude 10° 10:58:01 10° 251° (WSW) 7,173 12.0 12.9°
Maximum altitude 11:06:11 13° 232° (SW) 7,150 12.3 13.3°
Drops below altitude 10° 11:14:40 10° 212° (SSW) 7,399 12.8 13.6°
Sets 11:26:08 0° 189° (S) 8,074 13.6 14.0°
